Regional Weather Roundup
Issued by NWS

Home | Current Version | Previous Version | Text Only | Print | Product List | Glossary On
Versions: 1 2 3 4 5 6 7 8 9 10 11 12 13 14 15 16 17 18 19 20 21 22 23 24 25 26 27 28 29 30 31 32 33 34 35 36 37 38 39 40 41 42 43 44 45 46 47 48 49 50
000
ASUS43 KDTX 031210
RWRMI
MICHIGAN HOURLY REGIONAL WEATHER ROUNDUP
NATIONAL WEATHER SERVICE DETROIT/PONTIAC MI
800 AM EDT TUE AUG 03 2021

NOTE: "FAIR" INDICATES FEW OR NO CLOUDS BELOW 12,000 FEET WITH NO
SIGNIFICANT WEATHER AND/OR OBSTRUCTION TO VISIBILITY.

MIZ047>049-052>055-059>063-066>070-074>076-081>083-031300-
SOUTHEAST LOWER MICHIGAN

CITY           SKY/WX    TMP DP  RH WIND       PRES   REMARKS
ADRIAN         SUNNY     58  56  93 CALM      30.13S
6HR MIN TEMP:  52; 6HR MAX TEMP:  59;

ALMA           SUNNY     55  55 100 CALM      30.12S FOG
6HR MIN TEMP:  48; 6HR MAX TEMP:  55;

ANN ARBOR      SUNNY     59  57  93 CALM      30.12R
BAD AXE        SUNNY     57  57  99 CALM      30.11R
6HR MIN TEMP:  49; 6HR MAX TEMP:  57;

CARO           SUNNY     56  54  95 CALM      30.12R
DETROIT CITY   PTSUNNY   66  57  72 CALM      30.11S
6HR MIN TEMP:  60; 6HR MAX TEMP:  66;

DETROIT        PTSUNNY   65  60  84 NW5       30.12R
6HR MIN TEMP:  60; 6HR MAX TEMP:  65;

FLINT          SUNNY     59  56  89 CALM      30.12S
6HR MIN TEMP:  53; 6HR MAX TEMP:  59;

GROSSE ILE     CLOUDY    64  57  80 CALM      30.10S
6HR MIN TEMP:  58; 6HR MAX TEMP:  67;

HILLSDALE      CLOUDY    58  58  98 CALM      30.13S
6HR MIN TEMP:  50; 6HR MAX TEMP:  58;

HOWELL         SUNNY     58  57  96 CALM      30.13S
6HR MIN TEMP:  55; 6HR MAX TEMP:  60;


CITY           SKY/WX    TMP DP  RH WIND       PRES   REMARKS
JACKSON        SUNNY     57  54  89 CALM      30.13S
6HR MIN TEMP:  53; 6HR MAX TEMP:  59;

LAMBERTVILLE   SUNNY     58  56  93 CALM      30.12S
6HR MIN TEMP:  53; 6HR MAX TEMP:  58;

LANSING        SUNNY     59  55  87 CALM      30.13S
6HR MIN TEMP:  55; 6HR MAX TEMP:  59;

LAPEER         SUNNY     55  55 100 CALM      30.13R
6HR MIN TEMP:  49; 6HR MAX TEMP:  55;

MASON          SUNNY     56  56 100 CALM      30.14R FOG
6HR MIN TEMP:  53; 6HR MAX TEMP:  58;

MONROE         SUNNY     60  56  88 CALM      30.11S
6HR MIN TEMP:  54; 6HR MAX TEMP:  60;

MT. CLEMENS    MOSUNNY   62  62  99 CALM      30.10R
6HR MIN TEMP:  55; 6HR MAX TEMP:  62;

PONTIAC        PTSUNNY   62  56  80 NW5       30.11R
6HR MIN TEMP:  57; 6HR MAX TEMP:  62;

PORT HOPE        N/A     63  57  81 SW6       30.08S
6HR MIN TEMP:  58; 6HR MAX TEMP:  63;

PORT HURON     SUNNY     57  57 100 CALM      30.12R
TRI CITIES     SUNNY     59  56  89 SW6       30.12R
6HR MIN TEMP:  55; 6HR MAX TEMP:  61;

MIDLAND        SUNNY     55  55 100 CALM      30.11R
6HR MIN TEMP:  49; 6HR MAX TEMP:  55;

TROY           PTSUNNY   64  58  79 CALM      30.13S
SAGINAW HB     SUNNY     58  58  98 CALM      30.11S
6HR MIN TEMP:  53; 6HR MAX TEMP:  58;

$$
MIZ043>046-050>051-056>058-064>065-071>073-077>080-031300-
SOUTHWEST LOWER MICHIGAN

CITY           SKY/WX    TMP DP  RH WIND       PRES   REMARKS
BATTLE CREEK   SUNNY     58  55  90 CALM      30.14R
6HR MIN TEMP:  54; 6HR MAX TEMP:  60;

BENTON HARBOR  CLOUDY    55  52  89 CALM      30.13R
6HR MIN TEMP:  51; 6HR MAX TEMP:  55;

BIG RAPIDS     MOSUNNY   52  51  97 CALM      30.11S
6HR MIN TEMP:  49; 6HR MAX TEMP:  52;

COLDWATER      CLOUDY    57  56  95 CALM      30.14R
6HR MIN TEMP:  53; 6HR MAX TEMP:  57;

FREMONT        FAIR      57  55  92 CALM      30.11S
6HR MIN TEMP:  51; 6HR MAX TEMP:  57;

HOLLAND        SUNNY     58  54  86 CALM      30.13R
6HR MIN TEMP:  52; 6HR MAX TEMP:  58;

GRAND RAPIDS   MOSUNNY   56  55  97 S3        30.13S
6HR MIN TEMP:  53; 6HR MAX TEMP:  57;

IONIA          FAIR      57  56  96 CALM      30.12S
6HR MIN TEMP:  51; 6HR MAX TEMP:  58;

KALAMAZOO      SUNNY     59  54  83 CALM      30.14S
6HR MIN TEMP:  53; 6HR MAX TEMP:  59;

LUDINGTON      SUNNY     61  60  97 CALM      30.09S
6HR MIN TEMP:  53; 6HR MAX TEMP:  61;

MARSHALL       SUNNY     55  55  98 CALM      30.14R
6HR MIN TEMP:  51; 6HR MAX TEMP:  56;

MOUNT PLEASANT SUNNY     57  57 100 CALM      30.10S
6HR MIN TEMP:  50; 6HR MAX TEMP:  57;

MUSKEGON       MOSUNNY   60  56  86 SE3       30.11S
6HR MIN TEMP:  55; 6HR MAX TEMP:  60;

SOUTH HAVEN    MOSUNNY   54  53  97 CALM      30.13R
$$
MIZ016>042-031300-
NORTHERN LOWER MICHIGAN

CITY           SKY/WX    TMP DP  RH WIND       PRES   REMARKS
ALPENA         SUNNY     59  54  83 SW6       30.06S
6HR MIN TEMP:  52; 6HR MAX TEMP:  59;

BEAVER ISLAND  MOSUNNY   65  64  94 SW6       30.04R
6HR MIN TEMP:  64; 6HR MAX TEMP:  65;

BELLAIRE       MOSUNNY   59  58  97 CALM      30.07R
6HR MIN TEMP:  51; 6HR MAX TEMP:  59;

CADILLAC       SUNNY     57  57  98 SW5       30.10S
6HR MIN TEMP:  47; 6HR MAX TEMP:  57;

CHARLEVOIX     MOSUNNY   62  58  89 CALM      30.06R
6HR MIN TEMP:  59; 6HR MAX TEMP:  62;

FRANKFORT      MOSUNNY   65  62  88 CALM      30.07S
GAYLORD        MOSUNNY   62  54  74 SW8       30.08S
6HR MIN TEMP:  56; 6HR MAX TEMP:  62;

GRAYLING       SUNNY     53  51  93 CALM      30.08S
6HR MIN TEMP:  45; 6HR MAX TEMP:  53;

HARBOR SPRINGS MOSUNNY   62  59  91 SW3       30.06R
HOUGHTON LAKE  SUNNY     61  56  83 SW6       30.11R
6HR MIN TEMP:  47; 6HR MAX TEMP:  61;

MANISTEE       SUNNY     59  59 100 CALM      30.09R
OSCODA         SUNNY     56  56  98 SW6       30.08S
6HR MIN TEMP:  50; 6HR MAX TEMP:  56;

PELLSTON       MOSUNNY   65  61  87 VRB6      30.04S
6HR MIN TEMP:  56; 6HR MAX TEMP:  65;

ROGERS CITY    MOSUNNY   62  55  78 SW8       30.05S
TRAVERSE CITY  PTSUNNY   66  60  81 SW8       30.05S
6HR MIN TEMP:  60; 6HR MAX TEMP:  66;

$$
MIZ007>008-015-031300-
EASTERN UPPER MICHIGAN

CITY           SKY/WX    TMP DP  RH WIND       PRES   REMARKS
KINROSS        CLOUDY    61  61 100 SW5       30.03R
6HR MIN TEMP:  59; 6HR MAX TEMP:  61;

MACKINAC ISLAN MOSUNNY   65  64  93 SW9       30.03S
6HR MIN TEMP:  64; 6HR MAX TEMP:  65;

NEWBERRY       SUNNY     60  59  97 SW5       30.01S
6HR MIN TEMP:  58; 6HR MAX TEMP:  61;

S. S. MARIE    PTSUNNY   62  59  90 CALM      30.01S
6HR MIN TEMP:  60; 6HR MAX TEMP:  63;

MUNISING         N/A     62  55  77 S8        30.00R
6HR MIN TEMP:  58; 6HR MAX TEMP:  62;

$$
MIZ004>006-011>014-085-031300-
CENTRAL UPPER MICHIGAN

CITY           SKY/WX    TMP DP  RH WIND       PRES   REMARKS
MANISTIQUE     MOSUNNY   62  59  91 CALM      30.01S
6HR MIN TEMP:  58; 6HR MAX TEMP:  63;

ESCANABA       MOSUNNY   59  57  93 W6        30.03S
6HR MIN TEMP:  56; 6HR MAX TEMP:  61;

MENOMINEE      SUNNY     60  59  96 VRB3      30.06S
6HR MIN TEMP:  59; 6HR MAX TEMP:  65;

SAWYER-GWINN   MOSUNNY   55  52  88 CALM      30.03S HAZE
$$
MIZ001>003-009>011-084-031300-
WESTERN UPPER MICHIGAN

CITY           SKY/WX    TMP DP  RH WIND       PRES   REMARKS
IRON MOUNTAIN  MOSUNNY   60  55  83 N3        30.05R HAZE
6HR MIN TEMP:  56; 6HR MAX TEMP:  61;

HOUGHTON       PTSUNNY   68  57  68 W14G22    30.00R
6HR MIN TEMP:  67; 6HR MAX TEMP:  69;

COPPER HARBOR    N/A     69  57  65 CALM      29.97R
6HR MIN TEMP:  69; 6HR MAX TEMP:  74;

IRONWOOD       PTSUNNY   64  55  72 SW7       30.06R
6HR MIN TEMP:  59; 6HR MAX TEMP:  64;

$$

ABBREVIATIONS USED IN REMARKS
   TC - TEMPERATURE IN CELSIUS
  WCI - WIND CHILL INDEX
   HX - HEAT INDEX
  VSB - VISIBILITY



USA.gov is the U.S. government's official web portal to all federal, state and local government web resources and services.